Weather in Vayegi

Russia / Chukotka Autonomous Okrug     64°09′55″N   171°02′26″E
temp.,
°C
wind,
m/s
gust,
m/s
humid.,
%
clouds,
%
prec.,
mm/h
press.,
hPa
HPBL,
m
26 february, fri
fri2600:00−32n23901 0.0 102319
03:00−33nnw23900 0.0 102419
06:00−34nnw23900 0.0 102519
09:00−34nnw33900 0.0 102733
12:00−31n35900 0.0 1028195
15:00−30n35920 0.0 1028234
18:00−34nnw23960 0.0 102919
21:00−36nnw22960 0.0 103019
27 february, sat
sat2700:00−37nw22980 0.0 103119
03:00−37nnw22970 0.0 103019
06:00−37nnw22960 0.0 103019
09:00−37nnw22950 0.0 103019
12:00−33nnw22930 0.0 1030123
15:00−31nnw24930 0.0 1029193
18:00−35nnw12970 0.0 102919
21:00−37nnw11960 0.0 103019
28 february, sun
sun2800:00−37nnw11960 0.0 102919
03:00−38s00960 0.0 103019
06:00−38s11970 0.0 102919
09:00−37sse11940 0.0 103019
12:00−32sse00890 0.0 103073
15:00−31n12910 0.0 1029101
18:00−35n22930 0.0 102919
21:00−36n23930 0.0 102919
1 march, mon
mon100:00−37nnw33950 0.0 102723
03:00−38nnw33970 0.0 102423
06:00−36n339318 0.0 102237
09:00−32n4791100 0.0 1019163
12:00−29n61188100 0.0 1015329
15:00−26nne71286100 0.0 1011544
18:00−26n61287100 0.0 1009260
21:00−25n51387100 0.0 1009281
2 march, tue
tue200:00−25n51188100 0.0 1008247
03:00−25nnw4985100 0.0 1008214
06:00−27nnw4685100 0.0 100996
09:00−28nnw348593 0.0 101057
12:00−26nnw368485 0.0 1012236
15:00−26nw248740 0.0 1014166
18:00−30nnw228520 0.0 101619
21:00−32wnw11840 0.0 101819